This demonstration page uses our WeatherBlox Daily Observations layout. Learn more.

40.92945, -100.16068

Hourly Observations for March 23, 2020

Temp ( °F °C ) Dew Point ( °F °C ) Humidity (%) Winds ( mph kmh ) Pressure ( in mb ) Visibility ( mi km ) Precip ( " mm )
12:15 am 00:15 Clear 39 3.8 38 3.4 97 97 SW 3 6 30.08 1019 10 16.0934 0 0
12:35 am 00:35 Clear 38 3.5 38 3.1 97 97 SW 8 13 30.08 1019 10 16.0934 0 0
12:55 am 00:55 Clear 41 5 39 3.9 93 93 SW 7 11 30.06 1018 10 16.0934 0 0
1:15 am 01:15 Clear 42 5.5 40 4.2 91 91 WSW 6 9 30.05 1018 10 16.0934 0 0
1:35 am 01:35 Clear 39 4 38 3.1 94 94 WNW 8 13 30.08 1019 10 16.0934 0 0
1:55 am 01:55 Clear 38 3.2 37 2.7 97 97 NNW 5 7 30.09 1019 10 16.0934 0 0
2:15 am 02:15 Clear 34 1.2 34 1 99 99 NW 6 9 30.12 1020 10 16.0934 0 0
2:35 am 02:35 Clear 35 1.5 34 1.3 99 99 NNW 3 6 30.1 1019 10 16.0934 0 0
2:55 am 02:55 Clear 35 1.5 35 1.5 100 100 Calm 30.11 1020 10 16.0934 0 0
3:15 am 03:15 Clear 33 0.5 33 0.3 99 99 Calm 30.11 1020 10 16.0934 0 0
3:35 am 03:35 Clear 33 0.6 33 0.6 100 100 NNW 6 9 30.11 1020 10 16.0934 0 0
3:55 am 03:55 Cloudy with Fog 33 0.5 33 0.5 100 100 NNE 3 6 30.12 1020 0.5 0.80467 0 0
4:15 am 04:15 Cloudy with Fog 33 0.3 33 0.3 100 100 Calm 30.12 1020 0.25 0.402335 0 0
4:35 am 04:35 Cloudy with Fog 33 0.5 33 0.5 100 100 NNW 5 7 30.13 1020 0.25 0.402335 0 0
4:55 am 04:55 Cloudy with Fog 33 0.5 33 0.5 100 100 NNW 6 9 30.12 1020 0.25 0.402335 0 0
5:15 am 05:15 Cloudy with Fog 34 0.9 34 0.9 100 100 NNW 7 11 30.12 1020 0.5 0.80467 0 0
5:35 am 05:35 Cloudy with Fog 34 1.2 34 1.2 100 100 NNW 5 7 30.13 1020 0.25 0.402335 0 0
5:55 am 05:55 Cloudy with Fog 35 1.8 35 1.8 100 100 NNW 6 9 30.12 1020 0.25 0.402335 0 0
6:15 am 06:15 Cloudy with Fog 36 2.2 36 2.2 100 100 N 7 11 30.12 1020 0.5 0.80467 0 0
6:35 am 06:35 Cloudy with Fog 36 2.4 36 2.4 100 100 N 3 6 30.13 1020 0.5 0.80467 0 0
6:55 am 06:55 Cloudy with Fog 37 2.5 37 2.5 100 100 Calm 30.13 1020 0.5 0.80467 0 0
7:15 am 07:15 Cloudy with Fog 37 2.6 37 2.6 100 100 NNW 3 6 30.13 1020 0.5 0.80467 0 0
7:35 am 07:35 Cloudy with Mist and Fog 37 2.7 37 2.7 100 100 NNW 3 6 30.14 1021 0.75 1.207005 0 0
7:55 am 07:55 Cloudy with Fog 37 2.8 37 2.8 100 100 N 5 7 30.14 1021 0.5 0.80467 0 0
8:15 am 08:15 Cloudy with Mist and Fog 37 3 37 3 100 100 NNE 3 6 30.15 1021 1 1.60934 0 0
8:35 am 08:35 Cloudy with Mist and Fog 37 3 37 3 100 100 Calm 30.15 1021 1 1.60934 0 0
8:55 am 08:55 Cloudy with Mist and Fog 38 3.2 38 3.2 100 100 Calm 30.15 1021 0.75 1.207005 0 0
9:15 am 09:15 Cloudy with Mist and Fog 38 3.3 38 3.3 100 100 Calm 30.14 1021 1 1.60934 0 0
9:35 am 09:35 Cloudy with Mist and Fog 38 3.5 38 3.5 100 100 Calm 30.14 1021 1.25 2.011675 0 0
9:55 am 09:55 Cloudy with Mist and Fog 39 3.7 39 3.7 100 100 N 3 6 30.13 1020 1.5 2.41401 0 0
10:15 am 10:15 Cloudy with Mist and Fog 39 3.7 39 3.7 100 100 Calm 30.14 1021 1.75 2.816345 0 0
10:35 am 10:35 Cloudy with Mist and Fog 39 4 39 4 100 100 Calm 30.14 1021 3 4.82802 0 0
10:55 am 10:55 Cloudy with Mist and Fog 40 4.2 40 4.2 100 100 Calm 30.14 1021 4 6.43736 0 0
11:15 am 11:15 Cloudy 40 4.4 40 4.2 99 99 ENE 3 6 30.13 1020 7 11.26538 0 0
11:35 am 11:35 Cloudy 40 4.5 39 3.9 96 96 Calm 30.13 1020 7 11.26538 0 0
11:55 am 11:55 Cloudy 41 4.9 39 4.1 95 95 SSW 3 6 30.12 1020 10 16.0934 0 0
12:15 pm 12:15 Cloudy 41 5.2 40 4.4 95 95 S 3 6 30.12 1020 10 16.0934 0 0
12:35 pm 12:35 Cloudy 42 5.8 41 4.9 94 94 Calm 30.1 1019 10 16.0934 0 0
12:55 pm 12:55 Cloudy 44 6.6 41 5.2 91 91 Calm 30.09 1019 10 16.0934 0 0
1:15 pm 13:15 Cloudy 44 6.4 41 5.2 92 92 Calm 30.08 1019 10 16.0934 0 0
1:35 pm 13:35 Cloudy 45 7.4 42 5.7 89 89 SE 5 7 30.07 1018 10 16.0934 0 0
1:55 pm 13:55 Cloudy 46 7.9 43 6.1 89 89 SE 6 9 30.04 1017 10 16.0934 0 0
2:15 pm 14:15 Cloudy 48 8.8 44 6.4 85 85 SE 5 7 30.02 1017 10 16.0934 0 0
2:35 pm 14:35 Mostly Cloudy 48 8.9 43 6.3 84 84 ESE 3 6 30 1016 10 16.0934 0 0
2:55 pm 14:55 Partly Cloudy 49 9.4 43 6.3 81 81 E 6 9 29.99 1015 10 16.0934 0 0
3:15 pm 15:15 Partly Cloudy 50 10.2 45 7.3 82 82 E 7 11 29.97 1015 10 16.0934 0 0
3:35 pm 15:35 Sunny 51 10.7 46 7.6 81 81 ESE 8 13 29.95 1014 10 16.0934 0 0
3:55 pm 15:55 Sunny 52 11 46 7.7 80 80 E 7 11 29.94 1014 10 16.0934 0 0
4:15 pm 16:15 Sunny 53 11.4 46 7.6 78 78 ESE 8 13 29.93 1013 10 16.0934 0 0
4:35 pm 16:35 Partly Cloudy 53 11.9 46 7.9 77 77 ESE 9 15 29.91 1013 10 16.0934 0 0
4:55 pm 16:55 Partly Cloudy 52 11.1 46 7.5 79 79 ESE 12 19 29.91 1013 10 16.0934 0 0
5:15 pm 17:15 Partly Cloudy 52 11.1 45 7.1 77 77 ESE 10 17 29.91 1013 10 16.0934 0 0
5:35 pm 17:35 Partly Cloudy 52 11.3 45 7 75 75 ESE 13 20 29.9 1013 10 16.0934 0 0
5:55 pm 17:55 Mostly Cloudy 55 12.5 44 6.8 68 68 ESE 12 19 29.88 1012 10 16.0934 0 0
6:15 pm 18:15 Cloudy 54 12 44 6.6 70 70 ESE 15 24 29.88 1012 10 16.0934 0 0
6:35 pm 18:35 Cloudy 53 11.5 44 6.7 73 73 SE 14 22 29.9 1012 10 16.0934 0 0
6:55 pm 18:55 Cloudy 53 11.4 44 6.8 74 74 SE 14 22 29.89 1012 10 16.0934 0 0
7:15 pm 19:15 Mostly Cloudy 51 10.7 44 6.5 75 75 SE 14 22 29.88 1012 10 16.0934 0 0
7:35 pm 19:35 Partly Cloudy 51 10.4 44 6.5 77 77 SE 13 20 29.9 1012 10 16.0934 0 0
7:55 pm 19:55 Partly Cloudy 50 9.8 44 6.5 80 80 ESE 10 17 29.9 1013 10 16.0934 0 0
8:15 pm 20:15 Partly Cloudy 49 9.5 43 6.2 80 80 ESE 10 17 29.91 1013 10 16.0934 0 0
8:35 pm 20:35 Partly Cloudy 48 8.9 43 6.1 83 83 ESE 9 15 29.91 1013 10 16.0934 0 0
8:55 pm 20:55 Clear 47 8.6 43 6 84 84 ESE 10 17 29.91 1013 10 16.0934 0 0
9:15 pm 21:15 Clear 47 8.4 42 5.8 84 84 ESE 10 17 29.92 1013 10 16.0934 0 0
9:35 pm 21:35 Clear 47 8.2 42 5.8 85 85 ESE 12 19 29.93 1013 10 16.0934 0 0
9:55 pm 21:55 Clear 46 8 42 5.7 86 86 ESE 9 15 29.93 1014 10 16.0934 0 0
10:15 pm 22:15 Clear 46 7.8 42 5.7 87 87 SE 10 17 29.92 1013 10 16.0934 0 0
10:35 pm 22:35 Clear 46 7.8 43 5.9 88 88 ESE 10 17 29.92 1013 10 16.0934 0 0
10:55 pm 22:55 Clear 45 7.3 42 5.7 90 90 ESE 10 17 29.92 1013 10 16.0934 0 0
11:15 pm 23:15 Clear 45 7 42 5.6 91 91 SE 7 11 29.93 1014 10 16.0934 0 0
11:35 pm 23:35 Clear 43 6.1 41 5.1 93 93 E 7 11 29.93 1013 10 16.0934 0 0
11:55 pm 23:55 Clear 42 5.8 41 5.1 95 95 ESE 6 9 29.93 1014 10 16.0934 0 0

Powered by AerisWeather